TimePDT,TemperatureF,Dew PointF,Humidity,Sea Level PressureIn,VisibilityMPH,Wind Direction,Wind SpeedMPH,Gust SpeedMPH,PrecipitationIn,Events,Conditions,WindDirDegrees,DateUTC
12:56 AM,64.9,48.9,56,29.85,10.0,Calm,Calm,-,N/A,,Clear,0,2013-08-23 07:56:00
1:56 AM,63.0,47.8,58,29.84,10.0,Calm,Calm,-,N/A,,Clear,0,2013-08-23 08:56:00
2:56 AM,66.9,50.9,56,29.84,10.0,West,3.5,-,N/A,,Clear,260,2013-08-23 09:56:00
3:56 AM,59.9,47.8,64,29.83,10.0,Calm,Calm,-,N/A,,Clear,0,2013-08-23 10:56:00
4:56 AM,56.8,47.8,72,29.83,10.0,Calm,Calm,-,N/A,,Clear,0,2013-08-23 11:56:00
5:56 AM,54.9,47.8,77,29.84,10.0,Calm,Calm,-,N/A,,Clear,0,2013-08-23 12:56:00
6:56 AM,59.0,50.0,72,29.85,10.0,Calm,Calm,-,N/A,,Clear,0,2013-08-23 13:56:00
7:56 AM,66.9,50.9,56,29.85,10.0,Calm,Calm,-,N/A,,Clear,0,2013-08-23 14:56:00
8:56 AM,74.8,50.0,42,29.84,10.0,Calm,Calm,-,N/A,,Clear,0,2013-08-23 15:56:00
9:56 AM,79.9,52.0,38,29.83,10.0,Variable,3.5,-,N/A,,Clear,0,2013-08-23 16:56:00
10:56 AM,86.0,47.8,27,29.82,10.0,NW,4.6,-,N/A,,Clear,310,2013-08-23 17:56:00
11:56 AM,90.0,50.9,26,29.80,10.0,West,8.1,-,N/A,,Clear,280,2013-08-23 18:56:00
12:56 PM,93.9,54.9,27,29.77,10.0,West,11.5,-,N/A,,Clear,270,2013-08-23 19:56:00
1:56 PM,92.8,54.0,27,29.75,10.0,WNW,12.7,-,N/A,,Clear,290,2013-08-23 20:56:00
2:56 PM,92.8,50.9,24,29.73,10.0,West,12.7,-,N/A,,Clear,280,2013-08-23 21:56:00
3:56 PM,92.8,50.0,23,29.71,10.0,West,16.1,-,N/A,,Clear,280,2013-08-23 22:56:00
4:56 PM,91.9,50.9,25,29.70,10.0,West,12.7,19.6,N/A,,Clear,280,2013-08-23 23:56:00
5:56 PM,88.0,52.0,29,29.71,10.0,WNW,13.8,19.6,N/A,,Clear,290,2013-08-24 00:56:00
6:56 PM,83.8,50.9,32,29.71,10.0,West,15.0,19.6,N/A,,Clear,280,2013-08-24 01:56:00
7:56 PM,79.9,54.0,41,29.73,4.0,West,10.4,18.4,N/A,,Haze,260,2013-08-24 02:56:00
8:56 PM,77.0,55.9,48,29.75,10.0,West,10.4,-,N/A,,Clear,270,2013-08-24 03:56:00
9:56 PM,72.9,57.9,59,29.79,10.0,West,4.6,-,N/A,,Clear,260,2013-08-24 04:56:00
10:56 PM,68.9,59.0,71,29.80,10.0,West,4.6,-,N/A,,Clear,270,2013-08-24 05:56:00
11:56 PM,68.0,57.9,70,29.80,10.0,West,3.5,-,N/A,,Clear,270,2013-08-24 06:56:00